Вернуться в каталог

ARIANE 1 DEB

АктивенSSO
NORAD 17478·DEBRIS·🇫🇷 France

Запущен Feb 22, 1986 с Guiana Space Centre

Loading…

Ближайшие Пролёты (ближайшие 24 часа)

TLE

СвежийSource: Space-Track

Эпоха: Sep 14, 2026, 10:24 UTC

1 17478U 86019HR  26257.43344910  .00000280  00000-0  12108-3 0  9996
2 17478  98.2965 245.5217 0039441 138.8110  15.0878 14.30951550 69712

Отслеживайте ARIANE 1 DEB в реальном времени с AllMySat

Download on the App Store